Regional Weather Roundup
Issued by NWS Wakefield, VA

Home | Current Version | Previous Version | Graphics & Text | Print | Product List | Glossary On
Versions: 1 2 3 4 5 6 7 8 9 10 11 12 13 14 15 16 17 18 19 20 21 22 23 24 25 26 27 28
000
ASUS41 KAKQ 240315
RWRAKQ

REGIONAL WEATHER ROUNDUP
NATIONAL WEATHER SERVICE WAKEFIELD VA
1000 PM EST THU NOV 23 2017

Note: "fair" indicates few or no clouds below 12,000 feet with no
significant weather and/or obstructions to visibility. * = Denotes
station may not report precipitation (e.g., rain,snow,etc.),
thunder or fog.

VAZ042-051-052>054-056-240400-
NORTHERN VIRGINIA

CITY           SKY/WX    TMP DP  RH WIND       PRES   REMARKS
WASH NATIONAL  CLEAR     37  27  67 SW3       30.09R
DULLES         CLEAR     29  25  85 CALM      30.07S
FORT BELVOIR   CLEAR     28  24  82 CALM      30.08S
QUANTICO       CLEAR     33  29  85 NW7       30.10
FREDERICKSBRG* CLEAR     30  27  89 CALM      30.08S
STAFFORD*      CLEAR     26  26 100 CALM      30.12S
WARRENTON      NOT AVBL
CULPEPER*      CLEAR     26  22  84 CALM      30.09R
MANASSAS*      CLEAR     26  23  88 CALM      30.08S
LEESBURG*      CLEAR     32  28  86 S3        30.07S
WINCHESTER     CLEAR     30  23  74 CALM      30.04S
FRONT ROYAL*   CLEAR     32  25  74 MISG      30.03F
LURAY*         CLEAR     30  27  86 CALM      30.04S
$$

VAZ048-049-060>072-079>083-240400-
CENTRAL AND SOUTH CENTRAL VIRGINIA

CITY           SKY/WX    TMP DP  RH WIND       PRES   REMARKS
RICHMOND       CLEAR     32  26  78 CALM      30.08S
CHESTERFIELD*  NOT AVBL
PETERSBURG*    CLEAR    N/A N/A N/A CALM      30.08F
HANOVER        CLEAR     29  26  89 CALM      30.09S
TAPPAHANNOCK*    N/A    N/A N/A N/A MISG        N/A
QUINTON*       FAIR      28  28  99 CALM      30.08S
CHARLOTTSVILLE CLEAR     34  25  69 CALM      30.06S
GORDONSVILLE*  CLEAR     28  25  89 SW3       30.07R
ORANGE*        CLEAR     28  25  86 CALM      30.07S
LOUISA*        CLEAR     26  24  90 CALM      30.11S
BUMPASS*       FAIR      28  25  86 CALM      30.07S
FARMVILLE*     CLEAR     27  27 100 CALM      30.06S
CREWE*         FAIR      27  27 100 CALM      30.07S
FORT PICKETT*  FAIR      30  28  90 MISG      30.07S
CHASE CITY*    FAIR      30  28  91 CALM      30.07S
CLARKSVILLE*   FAIR      30  30 100 CALM      30.07S
SOUTH HILL*    CLEAR     28  28 100 CALM      30.12F
LAWRENCEVILLE* FAIR      32  29  90 CALM      30.07S
EMPORIA*       CLEAR     30  30 100 CALM      30.10S
$$

VAZ088>098-240400-
SOUTHEAST VIRGINIA

CITY           SKY/WX    TMP DP  RH WIND       PRES   REMARKS
NORFOLK        PTCLDY    38  32  79 CALM      30.08S
VIRGINIA BEACH NOT AVBL
NORFOLK NAVAL  NOT AVBL
WEST POINT*    CLEAR     27  25  92 CALM      30.10S
SALUDA*        FAIR      29  29  98 CALM      30.08S
NEWPORT NEWS   CLEAR     30  28  92 CALM      30.08F
LANGLEY AFB    CLOUDY    33  29  87 CALM      30.08F
FORT EUSTIS    CLOUDY    33  29  86 CALM      30.06F
WILLIAMSBURG*  CLOUDY    32  30  93 CALM      30.09S
HR EXEC AP*    NOT AVBL
FRANKLIN*      CLOUDY    30  28  94 CALM      30.09F
US460-WAKEFLD  CLOUDY    29  27  92 CALM      30.08F
$$

VAZ020-022-025-037-045-240400-
WEST CENTRAL AND SOUTHWEST VIRGINIA

CITY           SKY/WX    TMP DP  RH WIND       PRES   REMARKS
STAUNTON*      CLEAR     26  22  85 CALM      30.05S
WAYNESBORO*    CLEAR     32  23  70 CALM      30.02S
HOT SPRINGS VA CLEAR     37   8  29 W13       29.97S
LYNCHBURG      CLEAR     27  23  85 CALM      30.05F
DANVILLE       CLEAR     28  26  92 CALM      30.07S
SOUTH BOSTON*  FAIR      28  27  96 CALM      30.08S
MARTINSVILLE   CLEAR     27  24  87 CALM      30.08F
ROANOKE        CLEAR     35  25  66 CALM      30.06F
BLACKSBURG     CLEAR     31  25  77 CALM      30.05F
DUBLIN*        CLEAR     32  23  71 NW3       30.03S
MARION*        CLEAR     32  25  76 CALM      30.04S
HILLSVILLE*    CLEAR     35  25  66 SW6       30.00S
RICHLANDS*     FAIR      40  19  44 CALM      30.01S
WISE*          PTCLDY    37  27  65 CALM      30.02S
ABINGDON*      CLEAR     35  30  83 CALM      30.02S
$$

MDZ021>025-VAZ099-100-240400-
SOUTHERN MARYLAND AND THE DELMARVA PENINSULA

CITY           SKY/WX    TMP DP  RH WIND       PRES   REMARKS
PATUXENT RIVER CLEAR     28  26  92 SW5       30.07F
BAY BRIDGE APT CLEAR     34  30  86 CALM      30.08S
LEONARDTOWN    CLEAR     32  27  80 CALM      30.09S
DOVER          CLEAR     32  27  82 CALM      30.08R
GEORGETOWN     CLEAR     30  25  81 CALM      30.09R
EASTON         NOT AVBL
CAMBRIDGE      PTCLDY    28  25  86 SE3       30.08S
SALISBURY      CLEAR     27  25  92 CALM      30.08R
OCEAN CITY     CLEAR     27  26  96 CALM      30.09S
WALLOPS ISLAND CLEAR     31  27  85 CALM      30.08F
ACCOMACK*      CLEAR     30  28  93 CALM      30.08F
$$

NCZ012>017-030>032-240400-
NORTH CENTRAL AND EASTERN NORTH CAROLINA

CITY           SKY/WX    TMP DP  RH WIND       PRES   REMARKS
ROANOKE RAPIDS FAIR      32  32 100 CALM      30.08S
RALEIGH        PTCLDY    32  30  92 CALM      30.08R
ELIZABETH CITY CLOUDY    43  37  79 N6        30.08F
AHOSKIE*       CLEAR     33  32  96 CALM      30.09S
EDENTON*       CLOUDY    41  37  86 CALM      30.09S
CURRITUCK*     CLOUDY    38  37  93 CALM      30.08F
KILL DEVIL HLS CLOUDY    44  36  71 CALM      30.06F
MANTEO         CLOUDY    44  38  78 N5        30.07F
CAPE HATTERAS  CLOUDY    50  42  74 VRB7      30.05S
TARBORO*       NOT AVBL
GOLDSBORO      MOCLDY    41  35  81 CALM      30.05F
WASHINGTON     CLOUDY    41  37  86 CALM      30.08S
GREENVILLE     CLOUDY    37  37 100 CALM      30.09S
NEW BERN       CLOUDY    43  40  89 NE7       30.08R
WILMINGTON     CLOUDY    46  41  82 NE8       30.04F
$$

VAZ048-240400-
ELSEWHERE

CITY           SKY/WX    TMP DP  RH WIND       PRES   REMARKS
HARRISBURG PA  CLEAR     31  25  78 CALM      30.05R
BALTIMORE      CLEAR     30  24  78 CALM      30.07S
ANNAPOLIS      NOT AVBL
ANDREWS AFB    CLEAR     29  23  79 CALM      30.06S
PHILADELPHIA   CLEAR     35  22  58 W6        30.08R
HENDERSON NC   CLEAR     30  26  82 CALM      30.07S
GREENSBORO     CLEAR     36  29  75 CALM      30.05S
ROCKY MOUNT    PTCLDY    34  33  96 CALM      30.09R
$$

VAZ100-240400-
MARINE

STATION/POSITION TIME  TEMP    WIND        PRES    WAVE   SWELL
                       AIR SEA DIR/SP/G            HT/PER HT/PER
                 (UTC) (F)     (DEG/KT/KT) (MB)    (FT/S) (FT/S)
BRANDYWINE LGT   0248          290/  7/  9   N/A
CAPE MAY NJ      0248   40 50  310/  4/  6 1018.0R
LEWES DE         0248   34 49  230/  4/  5 1018.4R
15NM E FENWICK I 0250   42 57  290/  8/ 14 1018.7R   3/ 9   3/ 9
OCEAN-CITY-INLET 0248   37 52  290/  4/  5 1019.0R
WACHAPREAGUE VA  0248   34 49     CALM     1018.5F
THOMAS POINT MD  0300   42 51  280/  6/  7   N/A
GOOSES REEF MD   0250   44     290/  8/ 10 1019.1R
COVE POINT MD    0248   40     270/  5/  6 1019.0R
SOLOMONS ISLAND  0248   39 53   CALM  /  4 1018.1S
BISHOPS HEAD MD  0248   40 46  320/  4/  6 1018.8R
PINEY POINT MD   0248          270/  7/ 10   N/A
POTOMAC MD       0250   43     250/  8/ 10 1018.0R
CAMBRIDGE MD     0248   32 49              1019.2R
LEWISETTA VA     0248   38 48  250/  3/  4 1018.6S
RAPPAHANNOCK LGT 0248          290/  3/  5 1018.9F
STINGRAY PT      0250   42     280/  4/  6 1018.7F
YORK RVR RNG VA  0248   42      CALM  /  1 1019.1F
YORKTOWN VA      0248   38 53  190/  2/  2 1018.3F
JAMESTOWN VA     0250           70/  2/  4   N/A
DOMINION TERM VA 0248   42      40/  3/  4 1018.8F
KIPTOPEKE VA     0248      52   70/  4/  4   N/A
CAPE HENRY VA    0248   41     230/  3/  4   N/A
WILLOUBY STN VA  0248   43      10/  5/  6 1018.4F
S CRANEY ISL VA  0248   40     290/  2/  2 1018.4F
CAPE HENRY BUOY  0300      59                N/A     3/10   2/11
1ST LANDING BUOY 0250   44     330/  6/  8 1018.7F
CAPE CHARLES BUO 0251      57                N/A     3/ 9   2/11
64NM E OF VA BCH 0250   47 59  340/  8/ 10 1018.5    5/10   5/10
DUCK PIER NC     0248   47 57   10/  4/  7 1017.7F
44100 DUCK FRF   0245      60                N/A     4/10   2/11
44056 DUCK FRF   0300      60                N/A     3/11   2/11
OREGON INLET NC  0248           30/  6/ 10   N/A
HATTERAS NC      0248   50 59   20/ 13/ 15 1017.4R
DIAMOND SHLS NC  0300   57 71   20/ 12/ 16 1017.4
CAPE LOOKOUT NC  0300           10/ 14/ 18 1017.5R
$$




USA.gov is the U.S. government's official web portal to all federal, state and local government web resources and services.